Minneapolis Flying Cloud, MN

5:00 PM CDT on March 26, 2017 (GMT -0500)
Flying Cloud

Weather History for KFCM - June, 2011

Change the Weather History Date:

Wednesday, June 29, 2011

  Actual Average Record
Temperature  
Mean Temperature 73 °F -  
Max Temperature 84 °F 79 °F 91 °F (2002)
Min Temperature 62 °F 60 °F 51 °F (1999)
Cooling Degree Days 8    
Growing Degree Days 23 (Base 50)    
Moisture  
Dew Point 59 °F    
Average Humidity 59    
Maximum Humidity 80    
Minimum Humidity 44    
Precipitation  
Precipitation 0.00 in - - ()
Sea Level Pressure  
Sea Level Pressure 29.94 in    
Wind  
Wind Speed 8 mph (SSE)    
Max Wind Speed 17 mph    
Max Gust Speed 26 mph    
Visibility 10 miles    
Events      
Averages and records for this station are not official NWS values.
T = Trace of Precipitation, MM = Missing Value Source: NWS Daily Summary

Daily Weather History Graph

Daily Weather History Graph

Search for Another Location

Airport or City:

Trip Planner

Search our weather history database for the weather conditions in past years. The results will help you decide how hot, cold, wet, or windy it might be!

Date:

Astronomy

Jun. 29, 2011 Rise Set
Actual Time 5:30 AM CDT 9:03 PM CDT
Civil Twilight 4:53 AM CDT 9:40 PM CDT
Nautical Twilight 4:04 AM CDT 10:29 PM CDT
Astronomical Twilight 3:00 AM CDT 11:33 PM CDT
Moon 3:50 AM CDT (6/29) 7:47 PM CDT (6/29)
Length of Visible Light 16h 47m
Length of Day
15h 33m
Waning Crescent, 3% of the Moon is Illuminated
Jun 29
Waning Crescent
Jul 1
New
Jul 8
First Quarter
Jul 15
Full
Jul 23
Last Quarter

Hourly Weather History & Observations

Time (CDT) Temp. Heat Index Dew Point Humidity Pressure Visibility Wind Dir Wind Speed Gust Speed Precip Events Conditions
12:53 AM 62.1 °F - 55.9 °F 80% 30.01 in 10.0 mi ESE 3.5 mph - N/A   Clear
1:53 AM 64.9 °F - 54.0 °F 68% 30.00 in 10.0 mi ESE 3.5 mph - N/A   Clear
2:53 AM 63.0 °F - 54.0 °F 72% 30.01 in 10.0 mi Calm Calm - N/A   Partly Cloudy
3:53 AM 64.0 °F - 55.0 °F 73% 29.99 in 10.0 mi ESE 5.8 mph - N/A   Clear
4:53 AM 63.0 °F - 55.0 °F 75% 30.00 in 10.0 mi ESE 3.5 mph - N/A   Scattered Clouds
5:53 AM 64.0 °F - 55.9 °F 75% 30.01 in 10.0 mi SE 3.5 mph - N/A   Overcast
7:53 AM 69.1 °F - 59.0 °F 70% 30.01 in 10.0 mi SSE 9.2 mph - N/A   Mostly Cloudy
8:53 AM 73.0 °F - 61.0 °F 66% 30.01 in 10.0 mi SSE 8.1 mph - N/A   Clear
9:53 AM 75.9 °F - 61.0 °F 60% 30.01 in 10.0 mi South 12.7 mph 19.6 mph N/A   Clear
10:53 AM 78.1 °F - 61.0 °F 56% 30.00 in 10.0 mi South 17.3 mph 24.2 mph N/A   Clear
11:53 AM 80.1 °F 81.1 °F 61.0 °F 52% 29.98 in 10.0 mi South 11.5 mph 19.6 mph N/A   Clear
12:53 PM 82.0 °F 82.7 °F 61.0 °F 49% 29.97 in 10.0 mi South 16.1 mph 20.7 mph N/A   Clear
1:53 PM 82.9 °F 83.7 °F 62.1 °F 49% 29.95 in 10.0 mi SSE 12.7 mph 19.6 mph N/A   Clear
2:53 PM 82.9 °F 83.3 °F 61.0 °F 47% 29.92 in 10.0 mi SSE 15.0 mph 23.0 mph N/A   Clear
3:53 PM 84.0 °F 84.4 °F 61.0 °F 46% 29.89 in 10.0 mi SSE 16.1 mph 23.0 mph N/A   Clear
4:53 PM 84.0 °F 84.0 °F 60.1 °F 44% 29.87 in 10.0 mi SSE 15.0 mph 26.5 mph N/A   Clear
5:53 PM 84.0 °F 84.0 °F 60.1 °F 44% 29.86 in 10.0 mi South 15.0 mph 23.0 mph N/A   Clear
6:53 PM 82.9 °F 83.2 °F 60.1 °F 46% 29.85 in 10.0 mi SSE 15.0 mph 23.0 mph N/A   Clear
7:53 PM 81.0 °F 81.6 °F 60.1 °F 49% 29.85 in 10.0 mi SSE 12.7 mph 18.4 mph N/A   Clear
8:53 PM 78.1 °F - 60.1 °F 54% 29.84 in 10.0 mi SSE 11.5 mph - N/A   Clear
9:53 PM 75.9 °F - 61.0 °F 60% 29.86 in 10.0 mi SSE 9.2 mph - N/A   Clear
10:53 PM 75.0 °F - 61.0 °F 62% 29.85 in 10.0 mi SSE 11.5 mph - N/A   Clear
11:53 PM 73.9 °F - 62.1 °F 66% 29.85 in 10.0 mi SE 11.5 mph - N/A   Partly Cloudy